KC4LW Weather Reports


time (UTC)temp
C
wind
direction
speed
KPH
gust
KPH
rain 1hr
cm
rain 24hr
cm
rain mn
cm
humidity
%
barometer
mb
20260901070108 25 0 0.0 0.0 0.00 0.00 0.00 98 1015.9
20260901064601 25 0 0.0 0.0 0.00 0.00 0.00 98 1015.9
20260901063102 25 0 0.0 0.0 0.00 0.00 0.00 98 1016.0
20260901061559 25 0 0.0 0.0 0.00 0.00 0.00 98 1016.1
20260901054559 25 0 0.0 0.0 0.00 0.00 0.00 97 1016.3
20260901053100 25 0 0.0 0.0 0.00 0.00 0.00 97 1016.4
20260901051609 25 0 0.0 0.0 0.00 0.00 0.00 97 1016.7
20260901050101 25 0 0.0 0.0 0.00 0.00 0.00 97 1016.7
20260901044558 25 0 0.0 0.0 0.00 0.00 0.00 97 1016.4
20260901043107 25 0 0.0 0.0 0.00 0.00 0.00 96 1016.7
20260901041620 25 0 0.0 0.0 0.00 0.00 0.00 96 1016.7
20260901040110 26 0 0.0 0.0 0.00 0.00 0.00 96 1016.9
20260901034607 26 0 0.0 0.0 0.00 0.00 0.00 96 1017.0
20260901033104 26 0 0.0 0.0 0.00 0.00 0.00 95 1017.1
20260901031558 26 0 0.0 0.0 0.00 0.00 0.00 95 1017.1
20260901030059 26 0 0.0 1.6 0.00 0.00 0.00 95 1017.3
20260901024557 26 0 0.0 0.0 0.00 0.00 0.00 95 1017.4
20260901023101 26 0 0.0 0.0 0.00 0.00 0.00 94 1017.4
20260901021602 26 0 0.0 0.0 0.00 0.00 0.00 94 1017.4
20260901020105 26 0 0.0 3.2 0.00 0.00 0.00 94 1017.2
20260901014600 26 0 0.0 4.8 0.00 0.00 0.00 94 1016.9
20260901013106 26 0 0.0 3.2 0.00 0.00 0.00 94 1016.5
20260901011559 26 0 0.0 4.8 0.00 0.00 0.00 94 1016.4
20260901010106 27 0 0.0 4.8 0.00 0.00 0.00 94 1016.3
20260901004600 27 115 3.2 6.4 0.00 0.00 0.00 93 1016.3
20260901003102 27 0 1.6 9.7 0.00 0.00 0.00 93 1016.4
20260901001604 27 65 0.0 6.4 0.00 0.00 0.00 93 1016.3
20260901000104 27 115 1.6 6.4 0.00 0.00 0.00 92 1016.3
20260831234601 27 104 1.6 11.3 0.00 0.00 0.00 92 1016.4
20260831233105 27 45 1.6 6.4 0.00 0.00 0.00 90 1016.3
20260831231610 27 79 3.2 9.7 0.00 0.00 0.00 89 1016.5
20260831230056 28 74 1.6 9.7 0.00 0.00 0.00 88 1016.4
20260831224603 28 70 0.0 11.3 0.00 0.00 0.00 87 1016.3
20260831223059 28 224 3.2 17.7 0.00 0.00 0.00 85 1016.3
20260831221556 28 70 3.2 12.9 0.00 0.00 0.00 82 1016.0
20260831220103 28 87 4.8 14.5 0.00 0.00 0.00 78 1015.9
20260831214610 29 106 3.2 11.3 0.00 0.00 0.00 78 1015.8
20260831213100 29 55 3.2 11.3 0.00 0.00 0.00 78 1015.9
20260831211558 29 53 1.6 16.1 0.00 0.00 0.00 79 1015.8
20260831210058 29 59 1.6 9.7 0.00 0.00 0.00 81 1015.9
20260831204557 29 100 4.8 14.5 0.00 0.00 0.00 80 1016.0
20260831203056 29 62 3.2 11.3 0.00 0.00 0.00 80 1015.9
20260831201600 29 113 4.8 17.7 0.00 0.00 0.00 80 1015.8
20260831200059 29 146 3.2 14.5 0.00 0.00 0.00 82 1016.0
20260831194618 30 0 3.2 11.3 0.00 0.00 0.00 77 1016.0
20260831193054 29 121 3.2 12.9 0.00 0.00 0.00 77 1016.0
20260831191556 30 44 1.6 16.1 0.00 0.00 0.00 78 1016.4
20260831190101 30 88 3.2 14.5 0.00 0.00 0.00 77 1016.4
20260831184600 30 121 1.6 9.7 0.00 0.00 0.00 78 1016.6
20260831183108 30 75 1.6 11.3 0.00 0.00 0.00 75 1017.0
20260831181609 30 55 3.2 11.3 0.00 0.00 0.00 77 1017.1
20260831180107 29 5 3.2 14.5 0.00 0.00 0.00 79 1017.2
20260831174608 30 87 3.2 9.7 0.00 0.00 0.00 79 1017.3
20260831173106 30 121 1.6 11.3 0.00 0.00 0.00 81 1017.7
20260831171607 29 141 1.6 11.3 0.00 0.00 0.00 82 1017.7
20260831170123 29 5 1.6 11.3 0.00 0.00 0.00 81 1017.8
20260831164612 30 248 1.6 11.3 0.00 0.00 0.00 83 1018.0
20260831163106 30 123 3.2 11.3 0.00 0.00 0.00 82 1018.0
20260831161608 29 352 1.6 14.5 0.00 0.00 0.00 83 1018.3
20260831160103 29 55 1.6 6.4 0.00 0.00 0.00 85 1018.4
20260831154627 29 67 3.2 6.4 0.00 0.00 0.00 83 1018.6
20260831153101 30 19 1.6 11.3 0.00 0.00 0.00 82 1018.5
20260831151558 30 78 3.2 16.1 0.00 0.00 0.00 82 1018.3
20260831150104 30 0 3.2 11.3 0.00 0.00 0.00 83 1018.2
20260831144610 29 21 1.6 12.9 0.00 0.00 0.00 84 1018.2
20260831143111 29 30 3.2 11.3 0.00 0.00 0.00 84 1018.0
20260831141559 28 63 3.2 11.3 0.00 0.00 0.00 85 1017.7
20260831140058 29 123 1.6 8.0 0.00 0.00 0.00 84 1017.3
20260831134602 28 150 1.6 4.8 0.00 0.00 0.00 87 1017.3
20260831133100 28 291 1.6 4.8 0.00 0.00 0.00 88 1017.0
20260831131605 27 0 1.6 4.8 0.00 0.00 0.00 92 1017.0
20260831130121 26 0 0.0 3.2 0.00 0.00 0.00 96 1017.3
20260831124601 26 0 0.0 1.6 0.00 0.00 0.00 98 1017.0
20260831123103 25 0 0.0 3.2 0.00 0.00 0.00 100 1016.8
20260831121607 25 0 0.0 0.0 0.00 0.00 0.00 99 1016.9
20260831114612 25 0 0.0 0.0 0.00 0.00 0.00 99 1016.6
20260831113107 24 0 0.0 1.6 0.00 0.00 0.00 99 1016.5
20260831111603 25 0 0.0 1.6 0.00 0.00 0.00 99 1016.3
20260831110108 25 0 0.0 0.0 0.00 0.00 0.00 99 1016.2
20260831104600 25 0 0.0 0.0 0.00 0.00 0.00 99 1016.1
20260831103101 25 0 0.0 3.2 0.00 0.00 0.00 99 1016.1
20260831101603 25 0 0.0 0.0 0.00 0.00 0.00 99 1016.1
20260831094602 25 0 0.0 0.0 0.00 0.00 0.00 99 1015.8
20260831093103 25 0 0.0 0.0 0.00 0.00 0.00 99 1015.7
20260831091610 25 0 0.0 0.0 0.00 0.00 0.00 99 1015.7
20260831090059 25 0 0.0 0.0 0.00 0.00 0.00 99 1015.7
20260831084603 25 0 0.0 0.0 0.00 0.00 0.00 98 1015.8
20260831083057 25 0 0.0 0.0 0.00 0.00 0.00 98 1015.7
20260831081602 25 0 0.0 0.0 0.00 0.00 0.00 98 1015.7
20260831080056 25 0 0.0 0.0 0.00 0.00 0.00 98 1015.7
20260831074600 25 0 0.0 0.0 0.00 0.00 0.00 98 1015.7
20260831073109 25 0 0.0 0.0 0.00 0.00 0.00 98 1015.8
20260831071601 25 0 0.0 1.6 0.00 0.00 0.00 98 1015.9